Regional Weather Roundup
Issued by NWS Charleston, WV

Home | Current Version | Previous Version | Text Only | Print | Product List | Glossary Off
Versions: 1 2 3 4 5 6 7 8 9 10 11 12 13 14 15 16 17 18 19 20 21 22 23 24 25 26 27 28

000
ASUS41 KRLX 202210
RWRRLX
West Virginia Regional Weather Roundup
National Weather Service Charleston WV
600 PM EDT FRI APR 20 2018

Note: "fair" indicates few or no clouds below 12,000 feet with no
significant weather and/or obstructions to visibility.

WVZ003-202300-
Northern Panhandle of West Virginia

CITY           SKY/WX    TMP DP  RH WIND       PRES   REMARKS
WHEELING       FAIR      53  20  27 NW10G18   30.38S
$$

WVZ009-202300-
Northwest West Virginia

CITY           SKY/WX    TMP DP  RH WIND       PRES   REMARKS
PARKERSBURG    FAIR      59  22  24 N10       30.41F
$$

WVZ006-202300-
Western West Virginia

CITY           SKY/WX    TMP DP  RH WIND       PRES   REMARKS
HUNTINGTON       N/A    N/A N/A N/A MISG      30.38S
$$

WVZ015-202300-
West Central West Virginia

CITY           SKY/WX    TMP DP  RH WIND       PRES   REMARKS
CHARLESTON     FAIR      59  20  22 VRB7      30.37S
$$

WVZ022-031-202300-
North Central West Virginia

CITY           SKY/WX    TMP DP  RH WIND       PRES   REMARKS
CLARKSBURG     FAIR      56  23  27 N7        30.36S
MORGANTOWN     FAIR      54  22  28 VRB7      30.37S
$$

WVZ025-035-042-045-202300-
Southern West Virginia

CITY           SKY/WX    TMP DP  RH WIND       PRES   REMARKS
BECKLEY        FAIR      54  17  23 N9        30.33S
LOGAN          FAIR      57  16  19 NW7       30.36R
BLUEFIELD      FAIR      54  13  19 NW8       30.32S
LEWISBURG      FAIR      55  17  22 N12       30.32S
$$

WVZ047-202300-
Northern Mountains of West Virginia

CITY           SKY/WX    TMP DP  RH WIND       PRES   REMARKS
ELKINS         FAIR      52  20  28 W10       30.35S
$$

WVZ052-202300-
Eastern Panhandle of West Virginia

CITY           SKY/WX    TMP DP  RH WIND       PRES   REMARKS
MARTINSBURG    FAIR      58  25  28 NW9       30.28R
PETERSBURG     FAIR      56  22  27 NW15      30.32R
$$




USA.gov is the U.S. government's official web portal to all federal, state and local government web resources and services.